ONEWEB-0250, 48968

Orbit data source: Space-Track

ONEWEB-0250, 48968 is a payload satellite owned by One Web (NAA) (UK) in LEO that was launched on Thu, 01 Jul 2021 UTC via a SOYUZ-2-1B launch vehicle from the Vostochny Cosmodrome (VOSTO). Payload-class satellites include a variety of spacecraft equipped with specific instruments for various scientific and technological missions. These include communications satellites like Starlink; space stations such as the ISS; scientific satellites like the Hubble; Earth observation satellites from companies like Planet Labs, Umbra, and HawkEye 360; GPS; miniature CubeSats for education and research; and military/defense satellites.

Loading next visibility...
Identifier
48968, 2021-060B
Orbit
LEO
Country
Flag of UKUK
Related business
Manufacturer
One Web
Mission
Operational Commercial Communications
Bus & Motor
ARROW, Unknown motor
Mass
148 kg wet, ~140 kg dry
Launch date (UTC)
2021-07-01 (4 years ago)
Launch vehicle
SOYUZ-2-1B
Launch site
Vostochny Cosmodrome (VOSTO)
Object type
Payload
Rocket body
Debris
Shape & HBR
Trap Box + 2 Pan, 6.7 m
Radar Cross Section
3.464 m², Large (>1 m²)

Expand to show TLE details & history
Last TLE update: 11 hours ago

TLE from 11 hours ago
0 ONEWEB-0250
1 48968U 21060B   25346.82584492 -.00000015  00000-0 -63593-4 0  9994
2 48968  87.9042 264.2525 0001320  36.8340 323.2887 13.25820569215522
Epoch: 2025-12-12T19:49Z
TLE epoch observation values (Epoch: 2025-12-12T19:49:13.001Z)
Latitude
0.00003°
Longitude
-114.81357°
Altitude
1,164.681 km
Speed
7.271 km/s
True Right ascension
17h 37m 00s
True Declination
0° 00' 00"
Sunlit
Object was in daylight at epoch
Visualization orbit readout
Latitude
Unknown
Longitude
Unknown
Altitude
Unknown
Speed
Unknown
Apparent Right ascension
Unknown
Apparent Declination
Unknown
Sunlit
N/A
Visualization observer readout
Local Sidereal Time
05:21:12
Azimuth
Unknown
Elevation
Unknown
Doppler factor
Unknown
Orbital elements
Apogee altitude
1,160.661 km
Perigee altitude
1,158.671 km
Semi-major axis
7,537.803 km
Eccentricity
0.00013
Inclination
87.9042°
RAAN
264.2525°
Arg. of periapsis
36.834°
True anomaly
323.27966°
Mean anomaly
323.2887°
Eccentric anomaly
323.28418°
Mean motion
3.31647 °/min
Orbital period
108.55 mins
BSTAR
-0.000063593
Loading maneuver chart data...
Computing Atmospheric mass density...
Loading historical data...
Loading historical data...
Loading historical data...
Loading historical data...
Loading historical data...
Loading historical data...
Loading historical data...

Documentation

Showing up to 5 results
|